York, PA

7:34 PM EST on February 18, 2018 (GMT -0500)
York

Weather History for KTHV - May, 2014

Change the Weather History Date:

Monday, May 5, 2014

  Actual Average Record
Temperature  
Mean Temperature 50 °F -  
Max Temperature 64 °F 64 °F 84 °F (2000)
Min Temperature 37 °F 40 °F 32 °F (2005)
Degree Days  
Heating Degree Days 14    
Moisture  
Dew Point 35 °F    
Average Humidity 54    
Maximum Humidity 82    
Minimum Humidity 30    
Precipitation  
Precipitation 0.00 in - - ()
Sea Level Pressure  
Sea Level Pressure 29.97 in    
Wind  
Wind Speed 6 mph (NW)    
Max Wind Speed 12 mph    
Max Gust Speed 21 mph    
Visibility 10 miles    
Events      
Averages and records for this station are not official NWS values.
T = Trace of Precipitation, MM = Missing Value Source: NWS Daily Summary

Daily Weather History Graph

Daily Weather History Graph

Search for Another Location

Airport or City:

Trip Planner

Search our weather history database for the weather conditions in past years. The results will help you decide how hot, cold, wet, or windy it might be!

Date:

Astronomy

May. 05, 2014 Rise Set
Actual Time 6:02 AM EDT 8:06 PM EDT
Civil Twilight 5:33 AM EDT 8:35 PM EDT
Nautical Twilight 4:57 AM EDT 9:12 PM EDT
Astronomical Twilight 4:17 AM EDT 9:51 PM EDT
Moon 11:20 AM EDT (5/5) 12:48 AM EDT (5/5)
Length of Visible Light 15h 02m
Length of Day
14h 03m
Waxing Crescent, 36% of the Moon is Illuminated
May 5
Waxing Crescent
May 6
First Quarter
May 14
Full
May 21
Last Quarter
May 28
New

Hourly Weather History & Observations

Time (EDT) Temp. Windchill Dew Point Humidity Pressure Visibility Wind Dir Wind Speed Gust Speed Precip Events Conditions
12:53 AM 48.9 °F - 33.1 °F 54% 29.96 in 10.0 mi NNW 6.9 mph - N/A   Clear
1:53 AM 46.9 °F - 33.1 °F 59% 29.98 in 10.0 mi NNW 4.6 mph - N/A   Clear
2:53 AM 46.0 °F 42.5 °F 34.0 °F 63% 29.97 in 10.0 mi NW 6.9 mph - N/A   Clear
3:53 AM 44.1 °F 42.5 °F 33.1 °F 65% 29.98 in 10.0 mi WSW 3.5 mph - N/A   Clear
4:53 AM 37.0 °F 31.6 °F 32.0 °F 82% 29.98 in 10.0 mi WNW 6.9 mph - N/A   Clear
5:53 AM 41.0 °F 35.8 °F 33.1 °F 73% 29.99 in 10.0 mi WNW 8.1 mph - N/A   Clear
6:53 AM 42.1 °F - 34.0 °F 73% 30.02 in 10.0 mi Calm Calm - N/A   Clear
7:53 AM 48.0 °F - 35.1 °F 61% 30.03 in 10.0 mi West 4.6 mph - N/A   Clear
8:53 AM 52.0 °F - 36.0 °F 54% 30.04 in 10.0 mi NNW 10.4 mph - N/A   Clear
9:53 AM 55.0 °F - 36.0 °F 49% 30.04 in 10.0 mi NW 11.5 mph - N/A   Clear
10:53 AM 57.9 °F - 37.0 °F 46% 30.03 in 10.0 mi NNW 10.4 mph - N/A   Clear
11:53 AM 59.0 °F - 34.0 °F 39% 30.01 in 10.0 mi North 11.5 mph 20.7 mph N/A   Clear
12:53 PM 60.1 °F - 35.1 °F 39% 29.99 in 10.0 mi NNW 6.9 mph - N/A   Clear
2:53 PM 63.0 °F - 34.0 °F 34% 29.96 in 10.0 mi Variable 6.9 mph - N/A   Clear
3:53 PM 64.0 °F - 34.0 °F 33% 29.94 in 10.0 mi Calm Calm - N/A   Clear
4:53 PM 63.0 °F - 33.1 °F 33% 29.93 in 10.0 mi NNW 6.9 mph - N/A   Partly Cloudy
5:53 PM 64.0 °F - 32.0 °F 30% 29.91 in 10.0 mi NNW 5.8 mph - N/A   Partly Cloudy
6:53 PM 63.0 °F - 36.0 °F 37% 29.91 in 10.0 mi Calm Calm - N/A   Overcast
7:53 PM 57.9 °F - 43.0 °F 58% 29.91 in 10.0 mi WSW 3.5 mph - N/A   Partly Cloudy
8:53 PM 51.1 °F - 41.0 °F 68% 29.92 in 10.0 mi Calm Calm - N/A   Clear
9:53 PM 46.9 °F - 41.0 °F 80% 29.92 in 10.0 mi Calm Calm - N/A   Clear
10:53 PM 52.0 °F - 39.0 °F 61% 29.92 in 10.0 mi WSW 3.5 mph - N/A   Clear